Time,TemperatureF,DewpointF,PressureIn,WindDirection,WindDirectionDegrees,WindSpeedMPH,WindSpeedGustMPH,Humidity,HourlyPrecipIn,Conditions,Clouds,dailyrainin,SoftwareType,DateUTC
2013-03-26 00:02:00,46.6,35.8,30.00,SW,225,0.0,0.0,66,0.00,OVC,FEW,0.00,WeatherDisplay:10.37,2013-03-26 07:02:00,
2013-03-26 00:17:00,46.2,35.9,30.00,SE,135,0.0,0.0,67,0.00,OVC,FEW,0.00,WeatherDisplay:10.37,2013-03-26 07:17:00,
2013-03-26 00:32:00,45.9,35.9,29.99,East,90,0.0,0.0,68,0.00,OVC,FEW,0.00,WeatherDisplay:10.37,2013-03-26 07:32:00,
2013-03-26 00:47:00,45.6,35.6,29.99,East,90,0.0,0.0,68,0.00,OVC,FEW,0.00,WeatherDisplay:10.37,2013-03-26 07:47:00,
2013-03-26 01:02:00,45.3,35.4,30.00,East,90,0.0,0.0,68,0.00,OVC,FEW,0.00,WeatherDisplay:10.37,2013-03-26 08:02:00,
2013-03-26 01:17:00,45.1,35.6,29.99,East,101,0.0,0.0,69,0.00,OVC,FEW,0.00,WeatherDisplay:10.37,2013-03-26 08:17:00,
2013-03-26 01:32:00,45.0,36.1,30.00,East,90,0.0,0.0,71,0.00,OVC,FEW,0.00,WeatherDisplay:10.37,2013-03-26 08:32:00,
2013-03-26 01:47:00,44.8,35.9,29.99,East,90,0.0,0.0,71,0.00,OVC,FEW,0.00,WeatherDisplay:10.37,2013-03-26 08:47:00,
2013-03-26 02:02:00,44.4,36.0,30.00,East,97,0.0,0.0,72,0.00,OVC,FEW,0.00,WeatherDisplay:10.37,2013-03-26 09:02:00,
2013-03-26 02:17:00,44.3,35.9,30.00,SE,135,0.0,0.0,72,0.00,OVC,FEW,0.00,WeatherDisplay:10.37,2013-03-26 09:17:00,
2013-03-26 02:32:00,44.2,36.1,30.00,SE,135,0.0,0.0,73,0.00,OVC,FEW,0.00,WeatherDisplay:10.37,2013-03-26 09:32:00,
2013-03-26 02:47:00,44.1,36.0,29.99,SE,135,0.0,0.0,73,0.00,OVC,FEW,0.00,WeatherDisplay:10.37,2013-03-26 09:47:00,
2013-03-26 03:02:00,43.9,35.8,29.99,SE,135,0.0,0.0,73,0.00,-RA,FEW,0.00,WeatherDisplay:10.37,2013-03-26 10:02:00,
2013-03-26 03:17:00,43.5,35.8,30.00,East,80,0.0,0.0,74,0.00,-RA,FEW,0.00,WeatherDisplay:10.37,2013-03-26 10:17:00,
2013-03-26 03:32:00,43.3,35.9,29.99,ESE,109,0.0,0.0,75,0.00,-RA,FEW,0.00,WeatherDisplay:10.37,2013-03-26 10:32:00,
2013-03-26 03:47:00,43.2,35.8,29.99,SE,135,0.0,0.0,75,0.00,-RA,FEW,0.00,WeatherDisplay:10.37,2013-03-26 10:47:00,
2013-03-26 04:02:00,43.0,35.9,30.00,SE,135,0.0,0.0,76,0.00,OVC,FEW,0.00,WeatherDisplay:10.37,2013-03-26 11:02:00,
2013-03-26 04:17:00,43.3,36.6,30.00,East,95,0.0,0.0,77,0.00,OVC,FEW,0.00,WeatherDisplay:10.37,2013-03-26 11:17:00,
2013-03-26 04:32:00,43.5,36.8,30.00,East,97,0.0,0.0,77,0.00,OVC,FEW,0.00,WeatherDisplay:10.37,2013-03-26 11:32:00,
2013-03-26 04:47:00,43.5,36.8,30.00,ESE,112,0.0,0.0,77,0.00,OVC,FEW,0.00,WeatherDisplay:10.37,2013-03-26 11:47:00,
2013-03-26 05:17:00,43.9,37.5,30.00,East,98,0.0,0.0,78,0.00,-RA,FEW,0.00,WeatherDisplay:10.37,2013-03-26 12:17:00,
2013-03-26 05:32:00,44.1,37.6,30.00,East,101,0.0,0.0,78,0.00,-RA,FEW,0.00,WeatherDisplay:10.37,2013-03-26 12:32:00,
2013-03-26 05:47:00,44.2,37.8,30.00,NE,50,0.0,0.0,78,0.00,-RA,FEW,0.00,WeatherDisplay:10.37,2013-03-26 12:47:00,
2013-03-26 06:17:00,44.4,38.3,30.00,ENE,65,0.0,0.0,79,0.00,OVC,FEW,0.00,WeatherDisplay:10.37,2013-03-26 13:17:00,
2013-03-26 06:32:00,44.4,38.3,30.00,NE,45,0.0,0.0,79,0.00,OVC,FEW,0.00,WeatherDisplay:10.37,2013-03-26 13:32:00,
2013-03-26 06:47:00,44.4,38.3,30.00,NE,45,0.0,0.0,79,0.00,OVC,FEW,0.00,WeatherDisplay:10.37,2013-03-26 13:47:00,
2013-03-26 07:02:00,44.4,38.3,30.01,NE,45,0.0,0.0,79,0.00,OVC,FEW,0.00,WeatherDisplay:10.37,2013-03-26 14:02:00,
2013-03-26 07:17:00,44.4,38.3,30.01,NE,45,0.0,0.0,79,0.00,OVC,FEW,0.00,WeatherDisplay:10.37,2013-03-26 14:17:00,
2013-03-26 07:32:00,44.8,38.7,30.00,NE,45,0.0,0.0,79,0.00,OVC,FEW,0.00,WeatherDisplay:10.37,2013-03-26 14:32:00,
2013-03-26 07:47:00,45.1,38.9,30.01,NE,45,0.0,0.0,79,0.00,OVC,FEW,0.00,WeatherDisplay:10.37,2013-03-26 14:47:00,
2013-03-26 08:02:00,45.7,39.5,30.01,NE,46,0.0,0.0,79,0.00,OVC,FEW,0.00,WeatherDisplay:10.37,2013-03-26 15:02:00,
2013-03-26 08:17:00,46.2,40.4,30.01,NE,44,0.0,0.0,80,0.00,OVC,FEW,0.00,WeatherDisplay:10.37,2013-03-26 15:17:00,
2013-03-26 08:32:00,46.8,40.9,30.01,NNE,30,0.0,4.0,80,0.00,OVC,FEW,0.00,WeatherDisplay:10.37,2013-03-26 15:32:00,
2013-03-26 08:47:00,47.3,41.4,30.01,East,101,0.0,2.0,80,0.00,OVC,FEW,0.00,WeatherDisplay:10.37,2013-03-26 15:47:00,
2013-03-26 09:02:00,48.0,42.1,30.01,NNW,331,1.0,1.0,80,0.00,OVC,FEW,0.00,WeatherDisplay:10.37,2013-03-26 16:02:00,
2013-03-26 09:17:00,48.9,42.7,30.01,NW,305,0.0,2.0,79,0.00,OVC,FEW,0.00,WeatherDisplay:10.37,2013-03-26 16:17:00,
2013-03-26 09:32:00,49.8,43.6,30.01,NNE,27,0.0,2.0,79,0.00,OVC,FEW,0.00,WeatherDisplay:10.37,2013-03-26 16:32:00,
2013-03-26 09:47:00,50.6,43.9,30.01,NNW,338,1.0,2.0,78,0.00,OVC,FEW,0.00,WeatherDisplay:10.37,2013-03-26 16:47:00,
2013-03-26 10:02:00,51.1,44.5,30.01,NNW,343,2.0,3.0,78,0.00,OVC,FEW,0.00,WeatherDisplay:10.37,2013-03-26 17:02:00,
2013-03-26 10:17:00,51.6,45.0,30.01,WNW,296,0.0,2.0,78,0.00,OVC,FEW,0.00,WeatherDisplay:10.37,2013-03-26 17:17:00,
2013-03-26 10:32:00,51.7,44.7,30.01,WNW,284,1.0,3.0,77,0.00,OVC,FEW,0.00,WeatherDisplay:10.37,2013-03-26 17:32:00,
2013-03-26 10:47:00,52.0,45.0,30.02,WNW,289,2.0,5.0,77,0.00,OVC,FEW,0.00,WeatherDisplay:10.37,2013-03-26 17:47:00,
2013-03-26 11:02:00,52.3,45.0,30.02,NNW,339,1.0,5.0,76,0.00,OVC,FEW,0.00,WeatherDisplay:10.37,2013-03-26 18:02:00,
2013-03-26 11:17:00,52.5,45.2,30.02,WNW,285,1.0,4.0,76,0.00,OVC,FEW,0.00,WeatherDisplay:10.37,2013-03-26 18:17:00,
2013-03-26 11:47:00,53.8,46.0,30.02,NNE,22,1.0,5.0,75,0.00,OVC,FEW,0.00,WeatherDisplay:10.37,2013-03-26 18:47:00,
2013-03-26 12:02:00,54.0,45.9,30.02,NW,326,1.0,5.0,74,0.00,BKN,FEW,0.00,WeatherDisplay:10.37,2013-03-26 19:02:00,
2013-03-26 12:17:00,54.3,46.2,30.02,WNW,303,0.0,5.0,74,0.00,BKN,FEW,0.00,WeatherDisplay:10.37,2013-03-26 19:17:00,
2013-03-26 12:32:00,55.2,46.7,30.01,NNW,336,1.0,4.0,73,0.00,BKN,FEW,0.00,WeatherDisplay:10.37,2013-03-26 19:32:00,
2013-03-26 12:47:00,55.2,46.3,30.01,North,9,1.0,4.0,72,0.00,BKN,FEW,0.00,WeatherDisplay:10.37,2013-03-26 19:47:00,
2013-03-26 13:02:00,55.8,46.1,30.01,WNW,292,1.0,5.0,70,0.00,OVC,FEW,0.00,WeatherDisplay:10.37,2013-03-26 20:02:00,
2013-03-26 13:17:00,56.4,46.7,30.01,West,262,1.0,5.0,70,0.00,OVC,FEW,0.00,WeatherDisplay:10.37,2013-03-26 20:17:00,
2013-03-26 13:32:00,57.0,46.6,30.01,North,356,0.0,5.0,68,0.00,OVC,FEW,0.00,WeatherDisplay:10.37,2013-03-26 20:32:00,
2013-03-26 13:47:00,57.6,46.7,30.01,NW,320,1.0,4.0,67,0.00,OVC,FEW,0.00,WeatherDisplay:10.37,2013-03-26 20:47:00,
2013-03-26 14:02:00,58.3,47.0,30.01,NW,323,1.0,5.0,66,0.00,BKN,FEW,0.00,WeatherDisplay:10.37,2013-03-26 21:02:00,
2013-03-26 14:17:00,58.8,47.1,30.00,WNW,284,3.0,5.0,65,0.00,BKN,FEW,0.00,WeatherDisplay:10.37,2013-03-26 21:17:00,
2013-03-26 14:32:00,58.8,46.7,29.99,NW,324,2.0,5.0,64,0.00,BKN,FEW,0.00,WeatherDisplay:10.37,2013-03-26 21:32:00,
2013-03-26 14:47:00,58.8,46.7,29.99,WNW,300,1.0,6.0,64,0.00,BKN,FEW,0.00,WeatherDisplay:10.37,2013-03-26 21:47:00,
2013-03-26 15:02:00,58.8,46.6,29.99,WNW,302,3.0,6.0,64,0.00,OVC,FEW,0.00,WeatherDisplay:10.37,2013-03-26 22:02:00,
2013-03-26 15:17:00,58.1,46.0,29.99,NW,312,1.0,8.0,64,0.00,OVC,FEW,0.00,WeatherDisplay:10.37,2013-03-26 22:17:00,
2013-03-26 15:32:00,56.9,45.3,29.99,NW,305,0.0,5.0,65,0.00,OVC,FEW,0.00,WeatherDisplay:10.37,2013-03-26 22:32:00,
2013-03-26 15:47:00,55.7,44.5,29.99,WNW,289,0.0,5.0,66,0.00,OVC,FEW,0.00,WeatherDisplay:10.37,2013-03-26 22:47:00,
2013-03-26 16:02:00,55.2,44.4,29.98,North,8,0.0,1.0,67,0.00,BKN,FEW,0.00,WeatherDisplay:10.37,2013-03-26 23:02:00,
2013-03-26 16:17:00,55.0,45.0,29.98,North,7,0.0,3.0,69,0.00,BKN,FEW,0.00,WeatherDisplay:10.37,2013-03-26 23:17:00,
2013-03-26 16:32:00,55.0,45.4,29.98,WNW,295,0.0,2.0,70,0.00,BKN,FEW,0.00,WeatherDisplay:10.37,2013-03-26 23:32:00,
2013-03-26 16:47:00,55.1,45.5,29.98,West,267,1.0,3.0,70,0.00,BKN,FEW,0.00,WeatherDisplay:10.37,2013-03-26 23:47:00,
2013-03-26 17:02:00,55.2,46.0,29.98,WSW,252,2.0,4.0,71,0.00,OVC,FEW,0.00,WeatherDisplay:10.37,2013-03-27 00:02:00,
2013-03-26 17:17:00,55.2,46.0,29.97,WSW,245,0.0,4.0,71,0.00,OVC,FEW,0.00,WeatherDisplay:10.37,2013-03-27 00:17:00,
2013-03-26 17:32:00,55.0,46.2,29.98,West,271,2.0,4.0,72,0.00,OVC,FEW,0.00,WeatherDisplay:10.37,2013-03-27 00:32:00,
2013-03-26 17:47:00,54.3,45.5,29.98,West,272,0.0,5.0,72,0.00,OVC,FEW,0.00,WeatherDisplay:10.37,2013-03-27 00:47:00,
2013-03-26 18:02:00,53.8,45.3,29.97,WSW,246,0.0,5.0,73,0.00,OVC,FEW,0.00,WeatherDisplay:10.37,2013-03-27 01:02:00,
2013-03-26 18:17:00,53.2,45.2,29.97,West,266,1.0,4.0,74,0.00,OVC,FEW,0.00,WeatherDisplay:10.37,2013-03-27 01:17:00,
2013-03-26 18:32:00,52.5,44.5,29.97,West,259,0.0,6.0,74,0.00,OVC,FEW,0.00,WeatherDisplay:10.37,2013-03-27 01:32:00,
2013-03-26 18:47:00,52.1,44.5,29.97,SW,224,0.0,5.0,75,0.00,OVC,FEW,0.00,WeatherDisplay:10.37,2013-03-27 01:47:00,
2013-03-26 19:17:00,51.1,43.8,29.98,West,260,0.0,5.0,76,0.00,OVC,FEW,0.00,WeatherDisplay:10.37,2013-03-27 02:17:00,
2013-03-26 19:32:00,50.5,43.3,29.98,SSW,213,0.0,4.0,76,0.00,OVC,FEW,0.00,WeatherDisplay:10.37,2013-03-27 02:32:00,
2013-03-26 19:47:00,50.2,43.2,29.98,SW,225,0.0,5.0,77,0.00,OVC,FEW,0.00,WeatherDisplay:10.37,2013-03-27 02:47:00,
2013-03-26 20:02:00,49.8,43.2,29.98,SW,232,0.0,5.0,78,0.00,OVC,FEW,0.00,WeatherDisplay:10.37,2013-03-27 03:02:00,
2013-03-26 20:17:00,49.6,43.1,29.97,SW,221,0.0,3.0,78,0.00,OVC,FEW,0.00,WeatherDisplay:10.37,2013-03-27 03:17:00,
2013-03-26 20:32:00,49.6,43.1,29.98,SW,229,0.0,3.0,78,0.00,OVC,FEW,0.00,WeatherDisplay:10.37,2013-03-27 03:32:00,
2013-03-26 20:47:00,49.3,42.7,29.98,WSW,242,0.0,4.0,78,0.00,OVC,FEW,0.00,WeatherDisplay:10.37,2013-03-27 03:47:00,
2013-03-26 21:02:00,49.1,42.9,29.98,WSW,238,0.0,1.0,79,0.00,-RA,FEW,0.00,WeatherDisplay:10.37,2013-03-27 04:02:00,
2013-03-26 21:17:00,48.9,42.7,29.98,WSW,258,0.0,1.0,79,0.00,-RA,FEW,0.00,WeatherDisplay:10.37,2013-03-27 04:17:00,
2013-03-26 21:32:00,48.7,42.8,29.98,WSW,252,0.0,1.0,80,0.02,-RA,FEW,0.02,WeatherDisplay:10.37,2013-03-27 04:32:00,
2013-03-26 21:47:00,48.7,42.8,29.98,SW,233,0.0,0.0,80,0.00,-RA,FEW,0.02,WeatherDisplay:10.37,2013-03-27 04:47:00,
2013-03-26 22:02:00,48.6,42.7,29.99,ENE,68,0.0,0.0,80,0.00,OVC,FEW,0.02,WeatherDisplay:10.37,2013-03-27 05:02:00,
2013-03-26 22:17:00,48.4,42.5,29.99,ENE,68,0.0,0.0,80,0.00,OVC,FEW,0.02,WeatherDisplay:10.37,2013-03-27 05:17:00,
2013-03-26 22:32:00,48.4,42.5,29.99,ENE,68,0.0,0.0,80,0.00,OVC,FEW,0.02,WeatherDisplay:10.37,2013-03-27 05:32:00,
2013-03-26 22:47:00,48.4,42.5,29.99,ENE,68,0.0,0.0,80,0.00,OVC,FEW,0.02,WeatherDisplay:10.37,2013-03-27 05:47:00,
2013-03-26 23:02:00,48.3,42.8,29.99,NE,42,0.0,0.0,81,0.00,OVC,FEW,0.02,WeatherDisplay:10.37,2013-03-27 06:02:00,
2013-03-26 23:17:00,48.3,42.7,29.99,NE,45,0.0,0.0,81,0.00,OVC,FEW,0.02,WeatherDisplay:10.37,2013-03-27 06:17:00,
2013-03-26 23:32:00,48.2,42.6,29.99,NE,44,0.0,0.0,81,0.00,OVC,FEW,0.02,WeatherDisplay:10.37,2013-03-27 06:32:00,
2013-03-26 23:47:00,48.0,42.5,29.99,NNE,31,0.0,0.0,81,0.00,OVC,FEW,0.02,WeatherDisplay:10.37,2013-03-27 06:47:00,